| time (UTC) | temp C | wind direction | speed KPH | gust KPH | rain 1hr cm | rain 24hr cm | rain mn cm | humidity % | barometer mb |
| 20260506060141 | 14 | 128 | 1.6 | 3.2 | 0.00 | 0.00 | 0.00 | 35 | 1014.3 |
| 20260506050123 | 15 | 160 | 4.8 | 8.0 | 0.00 | 0.00 | 0.00 | 36 | 1014.1 |
| 20260506044633 | 15 | 163 | 1.6 | 4.8 | 0.00 | 0.00 | 0.00 | 36 | 1014.0 |
| 20260506043126 | 16 | 206 | 1.6 | 4.8 | 0.00 | 0.00 | 0.00 | 35 | 1013.8 |
| 20260506041633 | 16 | 140 | 0.0 | 1.6 | 0.00 | 0.00 | 0.00 | 37 | 1013.6 |
| 20260506040126 | 16 | 131 | 0.0 | 4.8 | 0.00 | 0.00 | 0.00 | 38 | 1013.4 |
| 20260506034657 | 15 | 112 | 0.0 | 0.0 | 0.00 | 0.00 | 0.00 | 39 | 1013.1 |
| 20260506033129 | 16 | 125 | 0.0 | 0.0 | 0.00 | 0.00 | 0.00 | 36 | 1012.9 |
| 20260506031637 | 16 | 107 | 0.0 | 0.0 | 0.00 | 0.00 | 0.00 | 37 | 1012.8 |
| 20260506030126 | 16 | 107 | 0.0 | 1.6 | 0.00 | 0.00 | 0.00 | 37 | 1012.7 |
| 20260506024701 | 16 | 107 | 0.0 | 3.2 | 0.00 | 0.00 | 0.00 | 37 | 1012.6 |
| 20260506023150 | 16 | 107 | 0.0 | 3.2 | 0.00 | 0.00 | 0.00 | 36 | 1012.5 |
| 20260506021637 | 18 | 118 | 1.6 | 1.6 | 0.00 | 0.00 | 0.00 | 32 | 1012.4 |
| 20260506020129 | 19 | 236 | 0.0 | 1.6 | 0.00 | 0.00 | 0.00 | 29 | 1012.3 |
| 20260506014638 | 20 | 168 | 1.6 | 3.2 | 0.00 | 0.00 | 0.00 | 28 | 1012.2 |
| 20260506013132 | 21 | 229 | 1.6 | 4.8 | 0.00 | 0.00 | 0.00 | 27 | 1012.1 |
| 20260506011639 | 21 | 246 | 1.6 | 8.0 | 0.00 | 0.00 | 0.00 | 27 | 1012.2 |
| 20260506010133 | 21 | 222 | 3.2 | 12.9 | 0.00 | 0.00 | 0.00 | 26 | 1012.1 |
| 20260506004622 | 22 | 237 | 11.3 | 19.3 | 0.00 | 0.00 | 0.00 | 25 | 1012.3 |
| 20260506003132 | 22 | 261 | 8.0 | 22.5 | 0.00 | 0.00 | 0.00 | 25 | 1012.1 |
| 20260506001627 | 22 | 234 | 12.9 | 20.9 | 0.00 | 0.00 | 0.00 | 24 | 1012.2 |
| 20260506000204 | 22 | 241 | 16.1 | 22.5 | 0.00 | 0.00 | 0.00 | 23 | 1012.2 |
| 20260505234659 | 22 | 209 | 6.4 | 14.5 | 0.00 | 0.00 | 0.00 | 27 | 1012.2 |
| 20260505233150 | 22 | 207 | 12.9 | 22.5 | 0.00 | 0.00 | 0.00 | 27 | 1012.2 |
| 20260505231621 | 22 | 225 | 11.3 | 19.3 | 0.00 | 0.00 | 0.00 | 28 | 1012.2 |
| 20260505230138 | 22 | 217 | 12.9 | 24.1 | 0.00 | 0.00 | 0.00 | 28 | 1012.3 |
| 20260505224628 | 22 | 239 | 12.9 | 25.7 | 0.00 | 0.00 | 0.00 | 28 | 1012.8 |
| 20260505223142 | 22 | 263 | 16.1 | 24.1 | 0.00 | 0.00 | 0.00 | 29 | 1012.9 |
| 20260505221652 | 22 | 210 | 14.5 | 27.4 | 0.00 | 0.00 | 0.00 | 29 | 1013.2 |
| 20260505220140 | 22 | 207 | 16.1 | 29.0 | 0.00 | 0.00 | 0.00 | 29 | 1013.4 |
| 20260505214655 | 21 | 248 | 24.1 | 33.8 | 0.00 | 0.00 | 0.00 | 30 | 1013.6 |
| 20260505213126 | 21 | 238 | 20.9 | 37.0 | 0.00 | 0.00 | 0.00 | 30 | 1014.0 |
| 20260505211641 | 21 | 231 | 17.7 | 35.4 | 0.00 | 0.00 | 0.00 | 30 | 1014.2 |
| 20260505210129 | 21 | 263 | 14.5 | 25.7 | 0.00 | 0.00 | 0.00 | 30 | 1014.7 |
| 20260505204639 | 21 | 237 | 11.3 | 22.5 | 0.00 | 0.00 | 0.00 | 33 | 1015.0 |
| 20260505203134 | 20 | 231 | 16.1 | 22.5 | 0.00 | 0.00 | 0.00 | 35 | 1015.5 |
| 20260505201626 | 20 | 241 | 14.5 | 29.0 | 0.00 | 0.00 | 0.00 | 35 | 1015.8 |
| 20260505200121 | 18 | 281 | 17.7 | 27.4 | 0.00 | 0.00 | 0.00 | 35 | 1015.8 |
| 20260505194631 | 18 | 234 | 24.1 | 38.6 | 0.00 | 0.00 | 0.00 | 36 | 1015.7 |
| 20260505193123 | 19 | 260 | 14.5 | 29.0 | 0.00 | 0.00 | 0.00 | 36 | 1015.5 |
| 20260505191638 | 19 | 243 | 17.7 | 32.2 | 0.00 | 0.00 | 0.00 | 34 | 1015.7 |
| 20260505190131 | 20 | 279 | 12.9 | 22.5 | 0.00 | 0.00 | 0.00 | 33 | 1015.4 |
| 20260505184624 | 20 | 232 | 9.7 | 19.3 | 0.00 | 0.00 | 0.00 | 32 | 1015.2 |
| 20260505183134 | 20 | 220 | 4.8 | 14.5 | 0.00 | 0.00 | 0.00 | 29 | 1015.2 |
| 20260505181625 | 20 | 246 | 8.0 | 14.5 | 0.00 | 0.00 | 0.00 | 28 | 1015.0 |
| 20260505180134 | 21 | 224 | 12.9 | 19.3 | 0.00 | 0.00 | 0.00 | 27 | 1015.1 |
| 20260505171623 | 20 | 168 | 3.2 | 9.7 | 0.00 | 0.00 | 0.00 | 29 | 1015.3 |
| 20260505170132 | 19 | 129 | 0.0 | 4.8 | 0.00 | 0.00 | 0.00 | 29 | 1015.2 |
| 20260505164644 | 19 | 279 | 3.2 | 12.9 | 0.00 | 0.00 | 0.00 | 31 | 1015.4 |
| 20260505163133 | 19 | 201 | 3.2 | 9.7 | 0.00 | 0.00 | 0.00 | 32 | 1015.0 |
| 20260505161625 | 19 | 208 | 4.8 | 11.3 | 0.00 | 0.00 | 0.00 | 33 | 1015.3 |
| 20260505160154 | 19 | 182 | 3.2 | 6.4 | 0.00 | 0.00 | 0.00 | 31 | 1015.3 |
| 20260505153133 | 18 | 153 | 0.0 | 4.8 | 0.00 | 0.00 | 0.00 | 32 | 1015.2 |
| 20260505151621 | 18 | 150 | 1.6 | 6.4 | 0.00 | 0.00 | 0.00 | 33 | 1015.1 |
| 20260505150134 | 18 | 222 | 0.0 | 3.2 | 0.00 | 0.00 | 0.00 | 34 | 1015.1 |
| 20260505140120 | 18 | 272 | 3.2 | 12.9 | 0.00 | 0.00 | 0.00 | 34 | 1015.2 |
| 20260505130129 | 17 | 209 | 0.0 | 1.6 | 0.00 | 0.00 | 0.00 | 34 | 1014.9 |
| 20260505124625 | 17 | 213 | 0.0 | 4.8 | 0.00 | 0.00 | 0.00 | 31 | 1014.6 |
| 20260505123138 | 17 | 248 | 0.0 | 1.6 | 0.00 | 0.00 | 0.00 | 31 | 1014.6 |
| 20260505121633 | 17 | 309 | 3.2 | 8.0 | 0.00 | 0.00 | 0.00 | 32 | 1014.5 |
| 20260505120125 | 17 | 251 | 0.0 | 0.0 | 0.00 | 0.00 | 0.00 | 33 | 1014.4 |
| 20260505114657 | 17 | 9 | 0.0 | 0.0 | 0.00 | 0.00 | 0.00 | 31 | 1014.1 |
| 20260505113132 | 17 | 297 | 0.0 | 0.0 | 0.00 | 0.00 | 0.00 | 31 | 1014.1 |
| 20260505111623 | 17 | 297 | 0.0 | 1.6 | 0.00 | 0.00 | 0.00 | 32 | 1014.2 |
| 20260505110138 | 17 | 297 | 0.0 | 0.0 | 0.00 | 0.00 | 0.00 | 32 | 1014.2 |
| 20260505101638 | 18 | 137 | 1.6 | 4.8 | 0.00 | 0.00 | 0.00 | 29 | 1013.8 |
| 20260505100130 | 18 | 256 | 0.0 | 0.0 | 0.00 | 0.00 | 0.00 | 28 | 1013.5 |
| 20260505094647 | 18 | 163 | 1.6 | 4.8 | 0.00 | 0.00 | 0.00 | 28 | 1013.3 |
| 20260505093158 | 18 | 16 | 1.6 | 9.7 | 0.00 | 0.00 | 0.00 | 30 | 1013.5 |
| 20260505091633 | 17 | 46 | 3.2 | 6.4 | 0.00 | 0.00 | 0.00 | 31 | 1013.5 |
| 20260505090125 | 17 | 336 | 0.0 | 3.2 | 0.00 | 0.00 | 0.00 | 32 | 1013.8 |
| 20260505084636 | 17 | 253 | 0.0 | 4.8 | 0.00 | 0.00 | 0.00 | 30 | 1013.8 |
| 20260505083132 | 17 | 80 | 0.0 | 4.8 | 0.00 | 0.00 | 0.00 | 31 | 1013.9 |
| 20260505081624 | 18 | 34 | 1.6 | 3.2 | 0.00 | 0.00 | 0.00 | 30 | 1014.0 |
| 20260505080141 | 18 | 260 | 1.6 | 4.8 | 0.00 | 0.00 | 0.00 | 30 | 1014.1 |
| 20260505074632 | 17 | 352 | 3.2 | 6.4 | 0.00 | 0.00 | 0.00 | 31 | 1014.0 |
| 20260505073128 | 17 | 36 | 4.8 | 8.0 | 0.00 | 0.00 | 0.00 | 30 | 1013.6 |
| 20260505071638 | 17 | 354 | 4.8 | 8.0 | 0.00 | 0.00 | 0.00 | 30 | 1013.7 |
| 20260505070132 | 17 | 1 | 4.8 | 9.7 | 0.00 | 0.00 | 0.00 | 29 | 1013.7 |
| 20260505064626 | 18 | 2 | 3.2 | 9.7 | 0.00 | 0.00 | 0.00 | 28 | 1013.5 |
| 20260505063138 | 18 | 301 | 4.8 | 9.7 | 0.00 | 0.00 | 0.00 | 26 | 1013.8 |
| 20260505061634 | 18 | 288 | 3.2 | 9.7 | 0.00 | 0.00 | 0.00 | 26 | 1014.0 |